Location: Auckland
(36.8500°S, 174.7800°E)
Time: 10:38:12
(UTC+13:00)

ISS - Visible Passes

Search period start: 19 October 2019 00:00
Search period end: 29 October 2019 00:00
Orbit: 411 x 421 km, 51.6° (Epoch: 19 October)

Date Brightness Start Highest point End Pass type
(mag) Time Alt. Az. Time Alt. Az. Time Alt. Az.
19 Oct -0.8 04:24:13 11° NE 04:24:13 11° NE 04:24:21 10° NE visible
19 Oct -3.8 20:58:11 10° NW 21:01:33 83° SW 21:04:25 14° SE visible
19 Oct -0.3 22:36:48 10° WSW 22:37:25 12° SW 22:37:25 12° SW visible
20 Oct -3.5 20:09:47 10° NNW 20:13:03 50° NE 20:16:22 10° ESE visible
20 Oct -1.1 21:47:25 10° WSW 21:49:59 20° SSW 21:52:08 12° SSE visible
21 Oct -1.7 20:58:16 10° W 21:01:17 29° SSW 21:04:21 10° SSE visible
22 Oct -2.7 20:09:22 10° WNW 20:12:38 49° SW 20:15:58 10° SE visible
22 Oct -0.5 21:48:55 10° SW 21:50:03 11° SSW 21:51:11 10° S visible
23 Oct -0.7 20:59:10 10° WSW 21:01:13 15° SSW 21:03:17 10° SSE visible
24 Oct -1.1 20:09:46 10° W 20:12:26 21° SSW 20:15:06 10° SSE visible
26 Oct -0.7 20:11:05 10° SW 20:12:22 12° SSW 20:13:40 10° S visible
